When you browse on this site, cookies collect data to enhance your experience and personalize the content and advertising you see.
Visit our Privacy Policy to learn more. By continuing to use the site, you agree to this use of cookies and data.
  • In Portugal
  • List of Countries
  • For 7 days
  • Water Temperature
  • Weather Map
  • Weather Widgets
  • user-avatar
    Login

    Hourly Weather Hillerod

    Today, 1 June, Monday

    Time Temperature Precipitation Wind Pressure Humidity
    00:00 +12°C° 0 mm 2 mps 767 mmHg 66%
    01:00 +10°C° 0 mm 2 mps 767 mmHg 64%
    02:00 +10°C° 0 mm 2 mps 767 mmHg 64%
    03:00 +9°C° 0 mm 2 mps 767 mmHg 64%
    04:00 +9°C° 0 mm 3 mps 766 mmHg 64%
    05:00 +10°C° 0 mm 2 mps 767 mmHg 63%
    06:00 +13°C° 0 mm 2 mps 767 mmHg 62%
    07:00 +14°C° 0 mm 2 mps 767 mmHg 61%
    08:00 +16°C° 0 mm 2 mps 767 mmHg 57%
    09:00 +17°C° 0 mm 2 mps 767 mmHg 54%
    10:00 +18°C° 0 mm 3 mps 767 mmHg 51%
    11:00 +19°C° 0 mm 3 mps 767 mmHg 50%
    12:00 +19°C° 0 mm 3 mps 767 mmHg 50%
    13:00 +19°C° 0 mm 3 mps 766 mmHg 49%
    14:00 +19°C° 0 mm 4 mps 766 mmHg 51%
    15:00 +19°C° 0 mm 4 mps 766 mmHg 53%
    16:00 +18°C° 0 mm 4 mps 765 mmHg 56%
    17:00 +18°C° 0 mm 4 mps 765 mmHg 59%
    18:00 +17°C° 0 mm 4 mps 765 mmHg 63%
    19:00 +15°C° 0 mm 4 mps 764 mmHg 66%
    20:00 +14°C° 0 mm 4 mps 764 mmHg 68%
    21:00 +14°C° 0 mm 3 mps 764 mmHg 69%
    22:00 +13°C° 0 mm 3 mps 764 mmHg 71%
    23:00 +13°C° 0 mm 3 mps 764 mmHg 72%

    Tomorrow, 2 June, Tuesday

    Time Temperature Precipitation Wind Pressure Humidity
    00:00 +12°C° 0 mm 3 mps 764 mmHg 73%
    01:00 +12°C° 0 mm 3 mps 763 mmHg 74%
    02:00 +12°C° 0 mm 4 mps 763 mmHg 75%
    03:00 +12°C° 0 mm 4 mps 763 mmHg 76%
    04:00 +12°C° 0 mm 4 mps 762 mmHg 77%
    05:00 +13°C° 0 mm 4 mps 762 mmHg 74%
    06:00 +14°C° 0 mm 3 mps 762 mmHg 71%
    07:00 +17°C° 0 mm 3 mps 762 mmHg 68%
    08:00 +17°C° 0 mm 3 mps 762 mmHg 66%
    09:00 +18°C° 0 mm 3 mps 761 mmHg 64%
    10:00 +19°C° 0 mm 4 mps 761 mmHg 61%
    11:00 +19°C° 0 mm 4 mps 761 mmHg 60%
    12:00 +19°C° 0 mm 4 mps 760 mmHg 58%
    13:00 +19°C° 0 mm 4 mps 760 mmHg 57%
    14:00 +19°C° 0 mm 4 mps 759 mmHg 58%
    15:00 +19°C° 0 mm 4 mps 758 mmHg 59%
    16:00 +19°C° 0 mm 4 mps 758 mmHg 60%
    17:00 +18°C° 0 mm 4 mps 757 mmHg 64%
    18:00 +17°C° 0 mm 4 mps 757 mmHg 68%
    19:00 +17°C° 0 mm 3 mps 757 mmHg 72%
    20:00 +16°C° 0 mm 3 mps 756 mmHg 74%
    21:00 +14°C° 0 mm 3 mps 756 mmHg 77%
    22:00 +13°C° 0 mm 3 mps 756 mmHg 79%
    23:00 +13°C° 0 mm 3 mps 755 mmHg 80%

    Day after tomorrow, 3 June, Wednesday

    Time Temperature Precipitation Wind Pressure Humidity
    00:00 +12°C° 0 mm 3 mps 755 mmHg 80%
    01:00 +13°C° 0 mm 2 mps 755 mmHg 81%
    02:00 +13°C° 0 mm 2 mps 754 mmHg 81%
    03:00 +12°C° 0 mm 2 mps 754 mmHg 81%
    04:00 +12°C° 0 mm 2 mps 754 mmHg 81%
    05:00 +13°C° 0 mm 2 mps 753 mmHg 77%
    06:00 +14°C° 0 mm 2 mps 753 mmHg 73%
    07:00 +15°C° 0 mm 2 mps 753 mmHg 69%
    08:00 +16°C° 0 mm 2 mps 753 mmHg 65%
    09:00 +18°C° 0 mm 1 mps 753 mmHg 62%
    10:00 +18°C° 0 mm 1 mps 753 mmHg 58%
    11:00 +19°C° 0 mm 1 mps 752 mmHg 57%
    12:00 +18°C° 0 mm 2 mps 752 mmHg 56%
    13:00 +19°C° 0 mm 2 mps 752 mmHg 55%
    14:00 +19°C° 0 mm 2 mps 752 mmHg 56%
    15:00 +18°C° 0 mm 2 mps 751 mmHg 57%
    16:00 +19°C° 0 mm 1 mps 751 mmHg 58%
    17:00 +17°C° 0 mm 2 mps 751 mmHg 65%
    18:00 +17°C° 0 mm 2 mps 750 mmHg 71%
    19:00 +16°C° 0 mm 3 mps 750 mmHg 78%
    20:00 +13°C° 0 mm 3 mps 750 mmHg 78%
    21:00 +12°C° 0 mm 4 mps 750 mmHg 79%
    22:00 +11°C° 0 mm 4 mps 750 mmHg 79%
    23:00 +11°C° 0 mm 4 mps 749 mmHg 77%

    4 June, Thursday

    Time Temperature Precipitation Wind Pressure Humidity
    00:00 +11°C° 0 mm 4 mps 749 mmHg 75%
    01:00 +11°C° 0 mm 4 mps 749 mmHg 73%
    02:00 +10°C° 0 mm 4 mps 748 mmHg 72%
    03:00 +10°C° 0 mm 4 mps 748 mmHg 71%
    04:00 +10°C° 0 mm 4 mps 747 mmHg 70%
    05:00 +10°C° 0 mm 5 mps 747 mmHg 69%
    06:00 +12°C° 0 mm 5 mps 746 mmHg 68%
    07:00 +11°C° 0 mm 6 mps 746 mmHg 67%
    08:00 +13°C° 0 mm 6 mps 745 mmHg 65%
    09:00 +14°C° 0 mm 6 mps 745 mmHg 63%
    10:00 +14°C° 0 mm 7 mps 744 mmHg 61%
    11:00 +12°C° 0.8 mm 7 mps 744 mmHg 67%
    12:00 +12°C° 0.8 mm 7 mps 743 mmHg 72%
    13:00 +11°C° 0.8 mm 7 mps 743 mmHg 78%
    14:00 +11°C° 2.3 mm 7 mps 742 mmHg 83%
    15:00 +10°C° 2.3 mm 8 mps 741 mmHg 88%
    16:00 +10°C° 2.3 mm 8 mps 741 mmHg 93%
    17:00 +10°C° 1.3 mm 7 mps 740 mmHg 94%
    18:00 +10°C° 1.3 mm 7 mps 740 mmHg 94%
    19:00 +11°C° 1.3 mm 6 mps 739 mmHg 95%
    20:00 +10°C° 0.2 mm 6 mps 739 mmHg 94%
    21:00 +10°C° 0.2 mm 7 mps 739 mmHg 93%
    22:00 +10°C° 0.2 mm 8 mps 739 mmHg 92%
    23:00 +10°C° 0.3 mm 8 mps 739 mmHg 91%

    5 June, Friday

    Time Temperature Precipitation Wind Pressure Humidity
    00:00 +10°C° 0.3 mm 9 mps 739 mmHg 89%
    01:00 +8°C° 0.3 mm 9 mps 738 mmHg 87%
    02:00 +8°C° 0.4 mm 9 mps 739 mmHg 87%
    03:00 +8°C° 0.4 mm 9 mps 739 mmHg 87%
    04:00 +7°C° 0.4 mm 10 mps 739 mmHg 87%
    05:00 +8°C° 0.1 mm 10 mps 739 mmHg 84%
    06:00 +8°C° 0.1 mm 10 mps 740 mmHg 80%
    07:00 +8°C° 0.1 mm 10 mps 740 mmHg 76%
    08:00 +10°C° 0 mm 9 mps 740 mmHg 74%
    09:00 +11°C° 0 mm 9 mps 740 mmHg 71%
    10:00 +12°C° 0 mm 8 mps 741 mmHg 69%
    11:00 +12°C° 0.3 mm 8 mps 741 mmHg 72%
    12:00 +12°C° 0.3 mm 9 mps 741 mmHg 75%
    13:00 +12°C° 0.3 mm 9 mps 741 mmHg 79%
    14:00 +11°C° 0.1 mm 9 mps 741 mmHg 80%
    15:00 +11°C° 0.1 mm 9 mps 741 mmHg 81%
    16:00 +10°C° 0.1 mm 9 mps 741 mmHg 82%
    17:00 +10°C° 0.2 mm 9 mps 740 mmHg 85%
    18:00 +9°C° 0.2 mm 10 mps 740 mmHg 87%
    19:00 +9°C° 0.2 mm 10 mps 740 mmHg 89%
    20:00 +9°C° 0.4 mm 10 mps 739 mmHg 89%
    21:00 +9°C° 0.4 mm 10 mps 739 mmHg 90%
    22:00 +11°C° 0.4 mm 11 mps 738 mmHg 90%
    23:00 +9°C° 0.2 mm 11 mps 738 mmHg 87%

    6 June, Saturday

    Time Temperature Precipitation Wind Pressure Humidity
    00:00 +9°C° 0.2 mm 11 mps 738 mmHg 85%
    01:00 +8°C° 0.2 mm 11 mps 738 mmHg 82%
    02:00 +8°C° 0 mm 11 mps 739 mmHg 81%
    03:00 +7°C° 0 mm 10 mps 739 mmHg 80%
    04:00 +7°C° 0 mm 10 mps 740 mmHg 79%
    05:00 +8°C° 0 mm 9 mps 740 mmHg 75%
    06:00 +10°C° 0 mm 9 mps 741 mmHg 71%
    07:00 +11°C° 0 mm 9 mps 741 mmHg 67%
    08:00 +11°C° 0 mm 9 mps 742 mmHg 65%
    09:00 +12°C° 0 mm 8 mps 742 mmHg 64%
    10:00 +13°C° 0 mm 8 mps 743 mmHg 62%
    11:00 +13°C° 0.7 mm 8 mps 743 mmHg 66%
    12:00 +13°C° 0.7 mm 8 mps 743 mmHg 70%
    13:00 +12°C° 0.7 mm 8 mps 743 mmHg 74%
    14:00 +12°C° 0.6 mm 8 mps 744 mmHg 74%
    15:00 +12°C° 0.6 mm 8 mps 744 mmHg 73%
    16:00 +12°C° 0.6 mm 8 mps 744 mmHg 73%
    17:00 +12°C° 0.1 mm 8 mps 744 mmHg 74%
    18:00 +11°C° 0.1 mm 8 mps 745 mmHg 74%
    19:00 +10°C° 0.1 mm 8 mps 745 mmHg 75%
    20:00 +9°C° 0 mm 8 mps 745 mmHg 75%
    21:00 +7°C° 0 mm 8 mps 746 mmHg 76%
    22:00 +6°C° 0 mm 7 mps 746 mmHg 76%
    23:00 +6°C° 0 mm 8 mps 746 mmHg 76%
    Show more